sat.trackr.live / text

‹ back to catalog

VNREDSAT 1

NORAD 39160 · 2013-021B

PAYLOAD ACTIVE UNKNOWN

§ Identity

Operator
Country
VTNM
Launch date
2013-05-07
Launch site
FRGUI
Launch vehicle
Mass (kg)
RCS (m²)
0.74

Purposes: earth_obs

External: N2YO · Heavens-Above · Gunter

§ Orbital elements

Epoch: 2026-05-25T04:56:33.489888Z

Period
98.31 min
Inclination
97.9092°
Eccentricity
0.0001496
Mean motion
14.64828339 rev/d
Perigee alt
676.6 km
Apogee alt
678.7 km
Semi-major
7,055.8 km
B*
9.5348e-5
RAAN
199.5034°
Arg perigee
97.5612°
Mean anomaly
262.5761°
Rev number
69,692

§ Raw data

VNREDSAT 11 39160U 13021B   26145.20594317  .00000464  00000+0  95348-4 0  99912 39160  97.9092 199.5034 0001496  97.5612 262.5761 14.64828339696927

JSON: /api/v1/satellites/39160 · /tle

For live sub-satellite position, see the globe view (requires WebGL).

§ Visibility from observer

Set your observer location to see the next 7 days of passes ≥ 10°. The values pass through the URL so the page stays shareable.

No JS? Fill the form by hand. The geolocation button needs JavaScript.